Regional Weather Roundup
Issued by NWS

Home | Current Version | Previous Version | Graphics & Text | Print | Product List | Glossary On
Versions: 1 2 3 4 5 6 7 8 9 10 11 12 13 14 15 16 17 18 19 20 21 22 23 24 25 26 27 28 29 30 31 32 33 34 35 36 37 38 39 40
000
ASUS45 KBOU 270507
RWRCO

WEATHER ROUNDUP FOR COLORADO
NATIONAL WEATHER SERVICE DENVER/BOULDER CO
1000 PM MST FRI DEC 26 2014

NOTE: "FAIR" INDICATES FEW OR NO CLOUDS BELOW 12000 FEET WITH NO
SIGNIFICANT WEATHER AND/OR OBSTRUCTIONS TO VISIBILITY.

COZ001>005-013-030-031-270600-
...NORTHWEST COLORADO...

CITY           SKY/WX    TMP DP  RH WIND       PRES   REMARKS
CRAIG          LGT SNOW  13   9  84 W9        30.06R FOG     WCI   1
HAYDEN         CLOUDY    10   7  85 W8        30.02R WCI  -1
MEEKER         PTCLDY     5   1  83 CALM      30.05R
MOUNT WERNER   NOT AVBL
STEAMBOAT SPGS CLOUDY    12   9  89 CALM      30.00R
WALDEN         CLOUDY     3   0  85 N9        29.93R WCI -11
$$

COZ006>008-011-270600-
...WEST CENTRAL VALLEYS...

CITY           SKY/WX    TMP DP  RH WIND       PRES   REMARKS
GRAND JUNCTION PTCLDY    12   7  80 NE3       30.10R
MONTROSE       LGT SNOW  22  18  85 SE3       30.08R FOG
EAGLE          LGT SNOW  18  12  79 W7        30.02R FOG     WCI   8
RIFLE          MOCLDY    15   7  70 S3        30.08R
DELTA          CLOUDY    26  15  64 W9        30.07R WCI  16
NUCLA          MOCLDY    19  12  73 NW5       30.09R WCI  13
$$

COZ017>023-064>068-270600-
...SOUTHWEST COLORADO...

CITY           SKY/WX    TMP DP  RH WIND       PRES   REMARKS
DURANGO        PTCLDY    11   8  88 N6        29.98R WCI   1
CORTEZ         MOCLDY    18  13  80 NW7       30.04R WCI   9
PAGOSA SPRINGS LGT SNOW  18  17  95 CALM      29.97R
TELLURIDE      LGT SNOW  11   9  90 CALM      29.94R
WOLF CREEK PAS CLOUDY     1   0  92 MISG      29.81R
$$

COZ009-010-012-014-032>034-037-058>063-270600-
...CENTRAL COLORADO...

CITY           SKY/WX    TMP DP  RH WIND       PRES   REMARKS
ASPEN          LGT SNOW  11   8  88 NW3       29.94R FOG
BUENA VISTA    LGT SNOW   1  -3  85 W7        29.94R WCI -12
COPPER MTN     LGT SNOW   5  -4  66 W16       29.76R WCI -14
BERTHOUD PASS  CLOUDY    -8 -13  77 MISG      29.72R
COTTONWOOD PAS FLURRIES   9   3  78 CALM      29.85R
GUNNISON       MOCLDY     1  -6  71 CALM      29.97R
KREMMLING      CLOUDY    12   5  73 CALM      29.98R
LEADVILLE      MOCLDY    -3  -7  82 NE7       29.83R WCI -16
MONARCH PASS   CLOUDY     1  -4  78 MISG      29.87R
SALIDA         CLOUDY     7   3  82 W3        30.05R
SUNLIGHT       CLOUDY   N/A N/A N/A SW5       29.85R FOG
WILKERSON PASS CLOUDY   N/A N/A N/A W6        29.81R FOG
$$

COZ069>075-270600-
...SAN LUIS VALLEY/SANGRE DE CRISTO MOUNTAINS...

CITY           SKY/WX    TMP DP  RH WIND       PRES   REMARKS
ALAMOSA        CLOUDY    13  10  88 W3        29.94R
LA VETA PASS   NOT AVBL
SAGUACHE       MOCLDY     1  -4  78 NW12      29.95R WCI -15
$$

COZ035-036-038>040-270600-
...NORTHERN COLORADO FRONT RANGE...

CITY           SKY/WX    TMP DP  RH WIND       PRES   REMARKS
DENVER INTL AP LGT SNOW  11   9  92 S3        30.07R FOG
DMNS CITY PARK   N/A     13  11  92 E2        30.08R
AURORA         MOCLDY     9   7  92 S3        30.07R
FRONT RANGE AP FLURRIES  14  12  92 SW5       30.08R WCI   6
ERIE MUNI ARPT LGT SNOW  12  10  92 S5        30.10R WCI   4
BOULDER MUN AP CLOUDY    12  10  92 CALM      30.08R
CENTENNIAL     FLURRIES  11   9  92 CALM      30.05R
BROOMFIELD     MOCLDY    12   9  85 CALM      30.07R
FORT COLLINS   CLOUDY    16  12  86 S6        30.10R WCI   7
LONGMONT       LGT SNOW  18  15  88 CALM      30.11S
$$

COZ041-046-047-076>085-087-088-270600-
...PIKES PEAK/PALMER DIVIDE AND SOUTHERN FOOTHILLS...

CITY           SKY/WX    TMP DP  RH WIND       PRES   REMARKS
COLO. SPRINGS  FLURRIES  15  12  88 SW10      30.04R WCI   2
A. F. ACADEMY  CLOUDY    13   6  73 N5        30.01R WCI   5
ELLICOTT       NOT AVBL
FALCON         CLOUDY    13   6  73 NW3       30.00R
FORT CARSON    FLURRIES  16  10  79 S6        30.05R WCI   7
LIMON          MOCLDY     6   4  91 NW3       30.07R
MONUMENT HILL  LGT SNOW   7   5  92 CALM      29.97S
TRINIDAD       FLURRIES  13  10  88 W5        30.06R WCI   5
$$

COZ042>045-048>051-090-091-270600-
...NORTHEAST COLORADO...

CITY           SKY/WX    TMP DP  RH WIND       PRES   REMARKS
GREELEY ARPT   CLOUDY    16   9  73 CALM      30.10S
AKRON          LGT SNOW  11   9  92 W7        30.09R FOG     WCI   0
BURLINGTON     PTCLDY     8   5  87 NW9       30.11R WCI  -5
WRAY           FLURRIES  16  14  93 W6        30.15R WCI   7
STERLING       LGT SNOW  14  12  92 W7        30.12S WCI   4
HOLYOKE        FLURRIES  19  16  86 W6        30.14R WCI  11
FORT MORGAN    LGT SNOW  12  10  90 W5        30.12R WCI   4
$$

COZ086-089-092>099-270600-
...SOUTHEAST COLORADO...

CITY           SKY/WX    TMP DP  RH WIND       PRES   REMARKS
PUEBLO         CLOUDY    19  13  77 SE8       30.12R WCI   9
LA JUNTA       MOCLDY    14  10  84 N3        30.15R
LAMAR          CLEAR     12   9  87 NW5       30.15R WCI   4
SPRINGFIELD      N/A     16  13  88 NW9       30.10R WCI   4
$$


USA.gov is the U.S. government's official web portal to all federal, state and local government web resources and services.